Tracking 18984 objects as of 24-Feb-2018
HD Live streaming from Space Station
objects crossing your sky now

FENGYUN 1C DEB

Track FENGYUN 1C DEB now!
10-day predictions


NORAD ID: 30499
Int'l Code: 1999-025AHM
Perigee: 620.1 km
Apogee: 783.5 km
Inclination: 99.0 °
Period: 98.7 minutes
Semi major axis: 7072 km
RCS: 0.028 m2 (small)
Launch date: May 10, 1999
Source: People's Republic of China (PRC)
Launch site: Taiyaun Space Center, China (TSC)

Note: This is SATELLITE DEBRIS
aabbcc
Your satellite tracking list
Your tracking list is empty




NASA's NSSDC Master Catalog

Two Line Element Set (TLE):
1 30499U 99025AHM 18055.21288959  .00001430  00000-0  28595-3 0  9993
2 30499  98.9750 298.5296 0115523 185.0986 295.3907 14.59550912582034
Source of the keplerian elements: AFSPC